Regional Weather Roundup
Issued by NWS

Home | Current Version | Previous Version | Graphics & Text | Print | Product List | Glossary On
Versions: 1 2 3 4 5 6 7 8 9 10 11 12 13 14 15 16 17 18 19 20 21 22 23 24 25 26 27 28 29 30 31 32 33 34 35 36 37 38 39 40 41 42 43 44 45 46 47 48 49 50
000
ASUS43 KMKX 211600
RWRWI

WISCONSIN REGIONAL WEATHER ROUNDUP
NATIONAL WEATHER SERVICE MILWAUKEE/SULLIVAN WI
1100 AM CDT TUE OCT 21 2014

NOTE: "FAIR" INDICATES FEW OR NO CLOUDS BELOW 12,000 FEET WITH NO
SIGNIFICANT WEATHER AND/OR OBSTRUCTIONS TO VISIBILITY.

WIZ001-002-006>008-014>016-023>028-211700-
NORTHWEST WISCONSIN

CITY           SKY/WX    TMP DP  RH WIND       PRES   REMARKS
SUPERIOR ARPT  CLOUDY    44  36  72 SE9       30.26S
ASHLAND        CLOUDY    43  35  73 E8        30.28R
HAYWARD        CLOUDY    44  34  67 SE9       30.25R
SIREN          SUNNY     47  34  60 SE6       30.23S
CUMBERLAND     SUNNY     45  34  65 E8        30.23S
RICE LAKE      MOSUNNY   45  34  65 NE6       30.25R
CHETEK         CLOUDY    44  36  73 E5        30.24S
LADYSMITH      CLOUDY    44  36  74 E7        30.26R
EAU CLAIRE     NOT AVBL
MENOMONIE      PTSUNNY   47  38  71 E8        30.24S
NEW RICHMOND   SUNNY     46  36  67 E9        30.22S
OSCEOLA        SUNNY     47  38  70 SE9       30.25S
$$

WIZ003>005-009-010-017-018-211700-
NORTH CENTRAL WISCONSIN

CITY           SKY/WX    TMP DP  RH WIND       PRES   REMARKS
MANITOWISH WTR CLOUDY    37  35  90 E6        30.25R WCI  33
ARBOR VITAE    CLOUDY    39  35  84 E5        30.25R
WOODRUFF       CLOUDY    39  35  84 E5        30.25R
RHINELANDER    CLOUDY    39  33  79 NE6       30.25S WCI  35
EAGLE RIVER    CLOUDY    39  34  81 NE5       30.24S
LAND O LAKES   CLOUDY    38  34  85 NE6       30.26R WCI  34
PHILLIPS       CLOUDY    39  34  81 NE9       30.24R WCI  33
TOMAHAWK       CLOUDY    39  33  81 CALM      30.26R
MEDFORD        PTSUNNY   45  35  69 E9        30.24R
MERRILL        CLOUDY    41  34  77 NE7G16    30.25S
$$

WIZ029-030-035-036-043>047-211700-
CENTRAL WISCONSIN

CITY           SKY/WX    TMP DP  RH WIND       PRES   REMARKS
WAUSAU         CLOUDY    43  35  73 E8        30.24R
MOSINEE        NOT AVBL
MARSHFIELD     CLOUDY    47  37  68 E7        30.23R
STEVENS POINT  CLOUDY    42  33  72 E8        30.25R
WAUPACA        CLOUDY    45  35  67 N8        30.25R
WAUTOMA        NOT AVBL
WISC RAPIDS    CLOUDY    46  35  65 E8        30.26R
CAMP DOUGLAS   NOT AVBL
$$

WIZ011>013-019>022-031-037>040-048>050-211700-
NORTHEAST WISCONSIN

CITY           SKY/WX    TMP DP  RH WIND       PRES   REMARKS
ANTIGO         CLOUDY    40  34  79 NE8       30.24S
SHAWANO        CLOUDY    46  36  68 NE13      30.25S
OCONTO         MOSUNNY   46  34  64 N12G17    30.24R
STURGEON BAY   CLOUDY    46  36  66 N15G21    30.23R
GREEN BAY      CLOUDY    46  36  68 N14       30.24R
MANITOWOC      CLOUDY    46  37  71 N9        30.22R HAZE
APPLETON       CLOUDY    43  36  75 N13       30.24R
CLINTONVILLE   CLOUDY    45  34  65 NE8       30.25R
OSHKOSH        CLOUDY    45  38  76 N13       30.23R
$$

WIZ032>034-041-042-053>061-211700-
SOUTHWEST WISCONSIN

CITY           SKY/WX    TMP DP  RH WIND       PRES   REMARKS
LA CROSSE      SUNNY     49  38  65 E7        30.24R
SPARTA         PTSUNNY   46  36  66 E8        30.25R
VIROQUA        SUNNY     47  37  68 E6        30.22S
BOSCOBEL       SUNNY     50  38  63 E5        30.24R
PRAIRIE DU CHI SUNNY     47  38  71 E6        30.23S
PLATTEVILLE    SUNNY     49  41  74 E7        30.22R
$$

WIZ056-057-062-063-064-067-068-211700-
SOUTH CENTRAL WISCONSIN

CITY           SKY/WX    TMP DP  RH WIND       PRES   REMARKS
REEDSBURG      CLOUDY    46  36  69 NE9       30.23S
BARABOO/DELLS  CLOUDY    45  35  67 E10       30.23R
LONE ROCK      NOT AVBL
MINERAL POINT  SUNNY     48  37  66 E10       30.21S
MADISON        CLOUDY    47  37  68 NE12      30.23R
MIDDLETON      CLOUDY    48  37  65 NE10      30.23R
WATERTOWN      CLOUDY    46  38  74 N9        30.21S
MONROE         MOSUNNY   48  37  66 N12       30.20S
JANESVILLE     PTSUNNY   52  37  58 NE10G17   30.20R
$$

WIZ051-052-058>065-066-070>072-211700-
SOUTHEAST WISCONSIN

CITY           SKY/WX    TMP DP  RH WIND       PRES   REMARKS
MILWAUKEE      CLOUDY    48  39  71 N10       30.20R
WAUKESHA       CLOUDY    46  37  71 N10       30.21R
MILWAUKEE/TIMM CLOUDY    46  37  71 N14       30.21R
RACINE         CLOUDY    48  40  73 N15G23    30.20R
BURLINGTON     CLOUDY    47  38  69 N9        30.19R
KENOSHA        CLOUDY    50  40  68 N12       30.19R
FOND DU LAC    CLOUDY    45  38  76 N12       30.24R
SHEBOYGAN      CLOUDY    47  37  68 N8        30.21R
WEST BEND      CLOUDY    45  36  70 N9        30.20S
JUNEAU         CLOUDY    44  37  75 N7        30.23R
$$

LSZ147-162-211700-
LAKE SUPERIOR

STATION/POSITION TIME  TEMP    WIND        PRES    WAVE
                       AIR SEA DIR/SP/G            HT/PER
                 (UTC) (F)     (DEG/KT/KT) (MB)    (FT/S)
W MID LAKE BUOY  1450   41 46   90/ 10/ 14 1026.1R   3/ 7
DEVILS ISLAND    1500   42     110/ 11/ 13 1025.9R
PORT WING        1540   44     110/  4/ 10 1025.4R
SAXON HARBOR     1500   43      70/  4/  7 1025.1
$$

LMZ867-665-643>646-211700-
LAKE MICHIGAN

STATION/POSITION TIME  TEMP    WIND        PRES    WAVE
                       AIR SEA DIR/SP/G            HT/PER
                 (UTC) (F)     (DEG/KT/KT) (MB)    (FT/S)
CHAMBERS ISLAND  1500   45     340/ 16/ 21 1023.4
N MID LAKE BUOY  1450   44 51   20/ 16/ 21 1022.7R   4/ 5
NORTHPORT PIER   1500   44     360/ 14/ 18 1023.4
SISTER BAY       1343           20/ 14/ 17   N/A
KEWAUNEE LAKESHO 1500   45     360/ 10/ 14 1021.8R
SHEBOYGAN LAKESH 1500   46 49  360/ 18/ 20 1022.9R
PORT WASHINGTON  1540   47     340/  5/ 11 1023.4R
ATWATER BUOY     1500   48     360/ 17/ 21 1022.9R
MILWAUKEE LAKESH 1500   47     350/ 12/ 17   N/A
S MID LAKE BUOY  1450   51 54   10/ 19/ 23 1020.1R   6/ 7
KENOSHA   LAKESH 1500   48     350/ 16/ 20 1021.3R
$$

TC  - TEMPERATURE IN CELSIUS
VSB - VISIBILITY IN STATUTE MILES
WCI - WIND CHILL INDEX
HX  - HEAT INDEX



USA.gov is the U.S. government's official web portal to all federal, state and local government web resources and services.